DW4535 Weather Reports


Display with metric or nautical units.
time (UTC)temp
F
wind
direction
speed
MPH
gust
MPH
rain 1hr
in
rain 24hr
in
rain mn
in
humidity
%
barometer
mb
20181020090112 43 86 1.0 3.0 0.00 0.00 0.00 91 1023.9
20181020084612 44 46 0.0 2.0 0.00 0.00 0.00 90 1023.9
20181020083127 44 46 1.0 4.0 0.00 0.00 0.00 91 1024.0
20181020081606 45 89 1.0 3.0 0.00 0.00 0.00 90 1023.9
20181020080051 45 89 1.0 3.0 0.00 0.00 0.00 90 1024.0
20181020074634 46 89 1.0 3.0 0.00 0.00 0.00 91 1024.1
20181020073106 46 89 1.0 4.0 0.00 0.00 0.00 91 1024.2
20181020071544 45 100 1.0 4.0 0.00 0.00 0.00 90 1024.2
20181020070057 46 82 2.0 4.0 0.00 0.00 0.00 90 1024.1
20181020064540 46 74 1.0 4.0 0.00 0.00 0.00 90 1024.1
20181020063052 46 101 1.0 4.0 0.00 0.00 0.00 90 1024.0
20181020061621 46 97 2.0 4.0 0.00 0.00 0.00 90 1024.1
20181020060150 47 90 2.0 4.0 0.00 0.00 0.00 89 1024.2
20181020054551 48 28 1.0 3.0 0.00 0.00 0.00 91 1024.3
20181020053056 46 78 0.0 2.0 0.00 0.00 0.00 90 1024.2
20181020051530 46 78 0.0 1.0 0.00 0.00 0.00 89 1024.2
20181020050047 47 78 1.0 3.0 0.00 0.00 0.00 89 1024.4
20181020044542 48 82 1.0 3.0 0.00 0.00 0.00 89 1024.3
20181020043043 48 76 1.0 3.0 0.00 0.00 0.00 89 1024.3
20181020041534 47 83 1.0 3.0 0.00 0.00 0.00 89 1024.2
20181020040054 48 83 1.0 2.0 0.00 0.00 0.00 88 1024.3
20181020034542 48 83 1.0 2.0 0.00 0.00 0.00 87 1024.3
20181020033108 48 83 0.0 2.0 0.00 0.00 0.00 87 1024.3
20181020031606 49 83 0.0 2.0 0.00 0.00 0.00 86 1024.4
20181020030034 50 83 0.0 2.0 0.00 0.00 0.00 86 1024.5
20181020024524 51 76 1.0 4.0 0.00 0.00 0.00 87 1024.6
20181020023039 50 86 2.0 3.0 0.00 0.00 0.00 87 1024.8
20181020021534 51 86 2.0 4.0 0.00 0.00 0.00 86 1024.9
20181020020035 51 84 1.0 3.0 0.00 0.00 0.00 85 1024.9
20181020014526 52 85 1.0 3.0 0.00 0.00 0.00 84 1024.8
20181020013103 53 105 2.0 4.0 0.00 0.00 0.00 84 1024.8
20181020011524 53 105 1.0 5.0 0.00 0.00 0.00 83 1024.7
20181020010049 54 76 2.0 5.0 0.00 0.00 0.00 82 1024.8
20181020004558 54 77 1.0 4.0 0.00 0.00 0.00 81 1024.8
20181020003101 55 83 3.0 6.0 0.00 0.00 0.00 80 1024.9
20181020001517 55 76 2.0 7.0 0.00 0.00 0.00 79 1024.9
20181020000045 55 15 2.0 8.0 0.00 0.00 0.00 78 1025.1
20181019234554 56 46 2.0 6.0 0.00 0.00 0.00 78 1025.0
20181019233021 56 68 1.0 9.0 0.00 0.00 0.00 80 1025.3
20181019231513 55 293 3.0 9.0 0.00 0.00 0.00 82 1025.3
20181019230015 55 260 5.0 10.0 0.00 0.00 0.00 83 1025.3
20181019224525 55 281 3.0 5.0 0.00 0.00 0.00 84 1025.3
20181019223005 54 257 3.0 5.0 0.00 0.00 0.00 85 1025.2
20181019221503 54 263 3.0 5.0 0.00 0.00 0.00 86 1025.3
20181019220006 54 253 3.0 6.0 0.00 0.00 0.00 86 1025.3
20181019214631 54 19 1.0 4.0 0.00 0.00 0.00 88 1025.3
20181019213201 53 352 2.0 5.0 0.00 0.00 0.00 88 1025.3
20181019211630 53 263 1.0 4.0 0.00 0.00 0.00 88 1025.4
20181019210100 53 35 1.0 5.0 0.00 0.00 0.00 89 1025.6
20181019204640 52 359 2.0 5.0 0.00 0.00 0.00 89 1025.7
20181019203121 52 327 1.0 5.0 0.00 0.00 0.00 90 1025.8
20181019201657 52 38 2.0 6.0 0.00 0.00 0.00 90 1026.0
20181019200207 52 31 2.0 6.0 0.00 0.00 0.00 90 1026.1
20181019194631 52 120 2.0 6.0 0.00 0.00 0.00 91 1026.2
20181019193115 51 285 3.0 5.0 0.00 0.00 0.00 92 1026.2
20181019191610 51 134 3.0 7.0 0.00 0.00 0.00 92 1026.2
20181019190111 50 92 1.0 5.0 0.00 0.00 0.00 93 1026.2
20181019184616 50 359 1.0 6.0 0.00 0.00 0.00 93 1026.2
20181019183121 49 31 2.0 5.0 0.00 0.00 0.00 93 1026.3
20181019181542 49 302 1.0 5.0 0.00 0.00 0.00 94 1026.2
20181019180041 48 36 1.0 5.0 0.00 0.00 0.00 94 1026.1
20181019174649 48 325 1.0 4.0 0.00 0.00 0.00 94 1026.1
20181019173106 47 64 1.0 5.0 0.00 0.00 0.00 94 1026.2
20181019171552 47 73 1.0 4.0 0.00 0.00 0.00 94 1026.1
20181019170057 47 333 1.0 4.0 0.00 0.00 0.00 94 1026.1
20181019164610 47 344 2.0 7.0 0.00 0.00 0.00 94 1025.9
20181019163100 47 335 2.0 6.0 0.00 0.00 0.00 94 1025.7
20181019161550 46 253 0.0 2.0 0.00 0.00 0.00 94 1025.7
20181019160049 46 102 0.0 3.0 0.00 0.00 0.00 94 1025.7
20181019154605 46 105 1.0 3.0 0.00 0.00 0.00 94 1025.5
20181019153046 46 56 0.0 4.0 0.00 0.00 0.00 94 1025.4
20181019151531 46 292 2.0 5.0 0.00 0.00 0.00 94 1025.3
20181019150046 46 77 0.0 3.0 0.00 0.00 0.00 94 1025.2
20181019144527 46 104 1.0 3.0 0.00 0.00 0.00 93 1025.1
20181019143028 46 113 0.0 2.0 0.00 0.00 0.00 93 1025.0
20181019141528 46 82 0.0 2.0 0.00 0.00 0.00 93 1024.9
20181019140027 47 302 2.0 4.0 0.00 0.00 0.00 93 1024.8
20181019134523 47 34 1.0 4.0 0.00 0.00 0.00 93 1024.9
20181019133041 47 21 1.0 6.0 0.00 0.00 0.00 94 1024.9
20181019131532 47 74 2.0 5.0 0.00 0.00 0.00 93 1024.9
20181019130020 47 68 1.0 6.0 0.00 0.00 0.00 93 1024.8
20181019124515 47 66 1.0 5.0 0.00 0.00 0.00 93 1024.7
20181019123015 47 47 1.0 5.0 0.00 0.00 0.00 93 1024.5
20181019121528 47 108 1.0 3.0 0.00 0.00 0.00 93 1024.5
20181019120053 47 301 0.0 3.0 0.00 0.00 0.00 93 1024.3
20181019114504 46 68 0.0 3.0 0.00 0.00 0.00 92 1024.2
20181019113002 45 324 0.0 3.0 0.00 0.00 0.00 93 1024.1
20181019111641 44 63 1.0 3.0 0.00 0.00 0.00 90 1024.0
20181019110139 44 64 1.0 4.0 0.00 0.00 0.00 91 1023.8
20181019104633 43 94 1.0 3.0 0.00 0.00 0.00 90 1023.8
20181019103103 44 90 2.0 4.0 0.00 0.00 0.00 90 1023.8
20181019101616 44 58 1.0 3.0 0.00 0.00 0.00 90 1023.8
20181019100145 44 84 2.0 4.0 0.00 0.00 0.00 90 1023.8
20181019094649 43 81 1.0 4.0 0.00 0.00 0.00 90 1023.8
20181019093140 43 63 1.0 3.0 0.00 0.00 0.00 89 1023.8
20181019091611 44 84 1.0 2.0 0.00 0.00 0.00 90 1023.7